Location: ??????????
(54.8537°N, 38.8755°E)
Time: 21:27:20
(UTC+00:00)

Tiros 1 despin weight - Pass Details

Date: 15 September 2024
Orbit: 572 x 613 km, 48.2° (Epoch: 13 October)

Event Time Altitude Azimuth Distance (km) Brightness Sun altitude
Exits shadow 02:17:06 - 233° (SW) 2,291 ? -6.5°
Reaches altitude 10° 02:18:00 10° 229° (SW) 1,973 ? -6.4°
Maximum altitude 02:22:00 31° 167° (SSE) 1,082 ? -5.9°
Drops below altitude 10° 02:26:01 10° 105° (ESE) 1,979 ? -5.3°
Sets 02:28:31 0° 95° (E) 2,883 ? -5.0°
